[[{"header":{"parameterUnit":"m.s-1","parameterCategory":1,"la1":30.2991,"la2":30.254,"lo1":-89.0895,"lo2":-89.0444,"dy":0.0017,"dx":0.0017,"nx":28,"ny":28,"refTime":"2025-07-25T09:00:00:Z","depth":0,"parameterNumber":2,"parameterNumberName":"U-component_of_WINDS"},"data":[0,0,0,0,0,0,0,0,0,0,0,0,0,0,0,0,0,0,0,0,0,0,0,0,0,0,0,0,0,0,0,0,0,0,0,0,0,0,0,0,0,0,0,0,0,0,0,0,0,0,0,0,0,0,0,0,0,0,-2.9912,-2.9913,0,-3.0043,-3.0044,-3.0046,-3.0111,-3.0111,-3.0111,-3.0111,-3.0243,-3.0247,-3.025,0,0,0,0,0,0,0,0,0,0,0,0,0,-2.9715,-2.9719,-2.9912,-2.9913,-2.9915,-3.0043,-3.0044,-3.0046,-3.0111,-3.0111,-3.0111,-3.0111,-3.0242,-3.0246,-3.0251,0,0,0,0,0,0,0,0,0,0,0,0,0,-2.9819,-2.972,-2.9911,-2.9963,-2.9969,-3.0042,-3.0045,-3.0047,-3.0111,-3.0111,-3.0111,-3.0111,-3.0241,-3.0246,-3.0251,-3.0283,0,0,-3.0267,-3.0269,0,0,0,0,0,0,0,0,-2.9813,-2.9826,-2.9954,-2.9959,-2.9966,-3.0061,-3.0024,-3.0126,-3.0111,-3.0057,-3.0111,-3.0111,-3.0182,-3.0193,-3.0217,-3.0289,-3.0295,-3.0268,-3.0271,-3.0273,-3.0275,0,0,0,0,0,0,0,-2.9806,-2.9821,-2.9964,-2.9955,-2.9963,-2.9979,-2.9993,-3.0043,-3.0118,-3.0062,-3.0067,-3.0082,-3.0186,-3.0212,-3.0221,-3.0297,-3.0268,-3.0272,-3.0275,-3.0277,-3.0401,-3.0401,0,0,0,0,0,0,-2.979,-2.9814,-2.9959,-2.9967,-2.9888,-2.9982,-2.9999,-3.003,-3.0118,-3.0131,-3.0081,-3.0084,-3.0203,-3.0214,-3.0225,-3.0269,-3.0273,-3.0278,-3.0281,-3.0401,-3.0401,-3.0402,0,0,0,0,0,0,-2.9786,-2.9803,-2.9954,-2.9892,-2.9913,-2.9986,-3.0021,-3.0033,-3.0059,-3.0132,-3.0146,-3.0094,-3.0203,-3.0218,-3.0268,-3.0274,-3.028,-3.0285,-3.0401,-3.0401,-3.0401,-3.0355,0,0,0,0,0,0,-2.978,-2.9801,-2.9814,-2.9892,-2.9916,-2.9995,-3.0021,-3.0035,-3.0068,-3.0073,-3.0148,-3.0161,-3.0204,-3.026,-3.0273,-3.0281,-3.0289,-3.0401,-3.0401,-3.0401,-3.0356,-3.0353,-3.0351,0,0,0,0,0,-2.9773,-2.9795,-2.9814,-2.9832,-2.9934,-2.9995,-3.0009,-3.006,-3.0068,-3.0082,-3.0129,-3.0158,-3.0271,-3.0265,-3.028,-3.029,-3.0401,-3.0401,-3.0401,-3.0357,-3.0354,-3.0351,0,0,0,0,0,0,-2.9715,-2.9806,-2.9829,-2.9877,-2.9928,-3.0006,-3.0025,-3.0054,-3.0103,-3.0106,-3.0166,-3.0182,-3.0227,-3.0264,-3.0255,-3.0325,-3.0339,-3.0342,-3.03,-3.0297,-3.0295,-3.0285,-3.0294,0,0,0,0,0,-2.9708,-2.9751,-2.9828,-2.9863,-2.9888,-2.9952,-2.9981,-3.0015,-3.007,-3.0092,-3.0143,-3.0194,-3.0242,-3.0271,-3.0319,-3.0361,-3.0379,-3.0376,-3.0373,-3.0371,-3.0373,-3.0398,-3.0398,-3.0403,-3.0403,-3.0403,0,0,-2.9694,-2.9749,-2.9773,-2.9853,-2.9897,-2.9939,-2.997,-3.0013,-3.0045,-3.0098,-3.0149,-3.0188,-3.025,-3.0296,-3.0319,-3.0328,-3.0376,-3.0371,-3.0369,-3.0373,-3.0399,-3.0398,-3.0398,-3.0403,-3.0403,-3.0403,0,0,-2.9691,-2.9737,-2.9771,-2.9814,-2.988,-2.9922,-2.993,-3.0004,-3.0033,-3.0085,-3.0125,-3.0164,-3.0244,-3.0286,-3.0318,-3.033,-3.0358,-3.0343,-3.033,-3.0354,-3.0354,-3.0354,-3.0358,-3.0359,-3.0345,-3.0345,-3.0345,0,-2.9665,-2.9731,-2.9785,-2.9827,-2.9861,-2.9911,-2.9946,-2.9985,-3.0062,-3.0085,-3.0093,-3.0195,-3.024,-3.0297,-3.03,-3.0324,-3.0335,-3.0335,-3.0349,-3.035,-3.0351,-3.0356,-3.0357,-3.0343,-3.0343,-3.0343,-3.0344,0,-2.9696,-2.9741,-2.9761,-2.9835,-2.9872,-2.9909,-2.9969,-2.9999,-3.003,-3.0071,-3.0123,-3.0179,-3.0239,-3.0255,-3.0285,-3.0316,-3.032,-3.0338,-3.0353,-3.0347,-3.0353,-3.0355,-3.034,-3.034,-3.0341,-3.0342,0,0,-2.966,-2.9764,-2.977,-2.9804,-2.988,-2.9916,-2.9956,-3.0015,-3.004,-3.0091,-3.0126,-3.0193,-3.021,-3.0246,-3.0282,-3.0303,-3.0309,-3.0319,-3.0321,-3.0316,-3.0347,-3.0333,-3.0334,-3.0328,-3.0329,-3.0329,-3.0342,0,-2.9667,-2.9742,-2.9792,-2.9847,-2.9889,-2.9937,-2.9972,-3.0022,-3.0061,-3.0102,-3.0146,-3.0192,-3.0212,-3.0234,-3.0257,-3.0303,-3.0316,-3.0303,-3.0361,-3.0362,-3.0345,-3.0337,-3.0322,-3.0331,-3.0344,-3.0344,-3.0345,0,-2.9686,-2.9737,-2.9796,-2.9867,-2.9887,-2.9917,-2.9975,-3.0014,-3.0071,-3.0099,-3.0139,-3.0175,-3.0219,-3.023,-3.0291,-3.0281,-3.0307,-3.0333,-3.0335,-3.0343,-3.0353,-3.0344,-3.0335,-3.0337,-3.0349,-3.0348,-3.0348,0,-2.9654,-2.9737,-2.9783,-2.9811,-2.9895,-2.9916,-2.9952,-3.0009,-3.0041,-3.0092,-3.0113,-3.0168,-3.0198,-3.0239,-3.0289,-3.0292,-3.0344,-3.0359,-3.0368,-3.0367,-3.0377,-3.0376,-3.0373,-3.0394,-3.0394,-3.0393,-3.0393,0,-2.9657,-2.9691,-2.977,-2.9799,-2.9838,-2.9894,-2.9932,-2.9972,-3.0023,-3.006,-3.0104,-3.0137,-3.0201,-3.0243,-3.0282,-3.0326,-3.0339,-3.0362,-3.0372,-3.0359,-3.0356,-3.0377,-3.0378,-3.0394,-3.0394,-3.0394,-3.0394,0,-2.9628,-2.9682,-2.9736,-2.9812,-2.9831,-2.9857,-2.9922,-2.9951,-2.9992,-3.0038,-3.0052,-3.0118,-3.0168,-3.0222,-3.0291,-3.0317,-3.036,-3.0374,-3.0341,-3.0347,-3.0352,-3.0351,-3.0363,-3.0367,-3.0384,-3.0384,-3.0384,0,-2.9627,-2.9654,-2.9733,-2.9761,-2.9796,-2.984,-2.9874,-2.993,-2.9962,-3.003,-3.0051,-3.0105,-3.0151,-3.023,-3.0283,-3.0336,-3.0352,-3.0352,-3.036,-3.0345,-3.0352,-3.035,-3.0353,-3.035,-3.0349,-3.0349,-3.0348,0,-2.9618,-2.9644,-2.969,-2.9746,-2.9785,-2.9831,-2.9879,-2.99,-2.9965,-2.9999,-3.0052,-3.0088,-3.0159,-3.0212,-3.0271,-3.0308,-3.0339,-3.0346,-3.035,-3.0337,-3.0316,-3.0328,-3.0334,-3.0345,-3.0345,-3.0346,-3.0346,-3.0346,-2.9604,-2.963,-2.969,-2.974,-2.9782,-2.9826,-2.9857,-2.9903,-2.9948,-3.001,-3.004,-3.0093,-3.015,-3.0233,-3.0268,-3.031,-3.0319,-3.0326,-3.0328,-3.0329,-3.0326,-3.0309,-3.0321,-3.0321,-3.0321,-3.0321,-3.0322,0,-2.9598,-2.9638,-2.9684,-2.975,-2.9789,-2.9816,-2.987,-2.9902,-2.9947,-2.9998,-3.0043,-3.0103,-3.0155,-3.0212,-3.0267,-3.029,-3.0305,-3.0302,-3.0301,-3.0309,-3.0314,-3.0304,-3.0288,-3.0288,-3.0288,-3.0288,-3.0288,-3.0288,-2.9599,-2.9646,-2.9678,-2.9746,-2.9787,-2.9839,-2.9868,-2.9908,-2.9949,-3.0015,-3.0058,-3.0095,-3.0149,-3.0208,-3.0257,-3.0272,-3.029,-3.0283,-3.0303,-3.0306,-3.0309,-3.0311,-3.0303,-3.0287,-3.0287,-3.0295,-3.0295,-3.0295]},{"header":{"parameterUnit":"m.s-1","parameterCategory":1,"la1":30.2991,"la2":30.254,"lo1":-89.0895,"lo2":-89.0444,"dy":0.0017,"dx":0.0017,"nx":28,"ny":28,"refTime":"2025-07-25T09:00:00:Z","depth":0,"parameterNumber":3,"parameterNumberName":"V-component_of_WINDS"},"data":[0,0,0,0,0,0,0,0,0,0,0,0,0,0,0,0,0,0,0,0,0,0,0,0,0,0,0,0,0,0,0,0,0,0,0,0,0,0,0,0,0,0,0,0,0,0,0,0,0,0,0,0,0,0,0,0,0,0,5.9815,5.9816,0,5.9943,5.9944,5.9946,5.9879,5.9876,5.9873,5.9869,5.9996,6.0002,6.0009,0,0,0,0,0,0,0,0,0,0,0,0,0,5.9507,5.9513,5.9815,5.9816,5.9818,5.9943,5.9945,5.9946,5.988,5.9876,5.9872,5.9868,5.9994,6.0002,6.001,0,0,0,0,0,0,0,0,0,0,0,0,0,5.9638,5.9515,5.9814,5.98,5.98,5.9942,5.9945,5.9947,5.9881,5.9876,5.9871,5.9866,5.9991,6.0001,6.0011,6.0173,0,0,6.0041,6.0045,0,0,0,0,0,0,0,0,5.9631,5.965,5.9801,5.9801,5.9802,5.989,5.9882,6.0023,5.9882,5.985,5.9869,5.9863,5.9965,5.9976,6.0011,6.0179,6.0185,6.0041,6.0047,6.0052,6.0054,0,0,0,0,0,0,0,5.9622,5.9644,5.9865,5.9803,5.9803,5.9785,5.9798,5.9909,5.9934,5.9852,5.9848,5.9864,5.9964,6.0002,6.0014,6.0186,6.0041,6.005,6.0056,6.006,6.049,6.0496,0,0,0,0,0,0,5.9614,5.9637,5.9861,5.9869,5.9702,5.9795,5.981,5.9867,5.9933,5.9938,5.9868,5.9861,5.9988,6.0003,6.0018,6.021,6.0052,6.0061,6.0066,6.0485,6.0492,6.0498,0,0,0,0,0,0,5.9608,5.9635,5.9856,5.9752,5.9779,5.9806,5.987,5.9872,5.991,5.9945,5.9949,5.9903,5.9984,6.0004,6.0135,6.0214,6.0065,6.0074,6.0478,6.0487,6.0495,6.0597,0,0,0,0,0,0,5.9599,5.9633,5.9697,5.9754,5.9784,5.9973,5.9875,5.9878,5.9928,5.9919,5.9979,5.9984,5.9982,6.012,6.0144,6.0224,6.0082,6.0471,6.0482,6.0492,6.0587,6.0608,6.0626,0,0,0,0,0,5.9589,5.972,5.97,5.9728,5.9865,5.9977,5.9995,5.9991,5.9935,5.9997,6.0019,5.9982,6.0202,6.0134,6.0161,6.0245,6.0466,6.0479,6.0491,6.0578,6.0604,6.0626,0,0,0,0,0,0,5.967,5.9727,5.9706,5.986,5.9915,5.9966,6.0045,6.0019,6.009,6.0078,6.007,6.0084,6.0219,6.0245,6.0169,6.0404,6.0325,6.0343,6.0382,6.0407,6.0426,6.0415,6.009,0,0,0,0,0,5.9707,5.9795,5.9839,5.9971,6.0,6.0018,6.0067,6.006,6.0115,6.0137,6.0169,6.0223,6.0303,6.0357,6.0434,6.0591,6.0601,6.0662,6.0681,6.0697,6.0713,6.0795,6.0821,6.0539,6.0539,6.0538,0,0,5.9781,5.9824,5.988,5.9988,6.003,6.0119,6.0038,6.0136,6.0202,6.0152,6.0276,6.0302,6.0361,6.0505,6.057,6.0531,6.0793,6.0713,6.0726,6.0732,6.081,6.0837,6.0861,6.0547,6.0546,6.0544,0,0,5.9963,6.0006,6.0119,6.0162,6.0226,6.0237,6.0264,6.032,6.0334,6.046,6.0423,6.0501,6.0641,6.0684,6.0724,6.0921,6.0888,6.0947,6.1048,6.1128,6.1151,6.117,6.1238,6.1262,6.0962,6.0962,6.0963,0,6.0048,6.0183,6.0179,6.0281,6.0328,6.0289,6.0401,6.0443,6.0528,6.0561,6.0517,6.0691,6.0728,6.088,6.0928,6.0963,6.0991,6.0939,6.1148,6.1168,6.1186,6.125,6.1276,6.0969,6.0968,6.0967,6.0967,0,6.0282,6.0377,6.046,6.0544,6.0601,6.0708,6.0718,6.0776,6.0764,6.0779,6.0906,6.0949,6.1033,6.1069,6.1058,6.1219,6.1192,6.1149,6.1068,6.1219,6.1279,6.1304,6.0978,6.0976,6.0974,6.0972,0,0,6.0518,6.0599,6.0629,6.0665,6.0733,6.0804,6.0908,6.0991,6.1039,6.11,6.1184,6.1304,6.1263,6.1309,6.1302,6.1373,6.1523,6.132,6.1322,6.1354,6.1699,6.173,6.1759,6.1503,6.1507,6.1511,6.1693,0,6.0702,6.0885,6.0884,6.1052,6.1137,6.1101,6.119,6.124,6.1257,6.133,6.1348,6.1432,6.1374,6.1401,6.147,6.149,6.1592,6.1478,6.1578,6.1582,6.1562,6.1791,6.1824,6.1994,6.1717,6.1721,6.1724,0,6.0942,6.101,6.1186,6.1239,6.1275,6.1356,6.143,6.1502,6.1557,6.1564,6.1615,6.1597,6.17,6.1619,6.1759,6.1681,6.1722,6.1739,6.1745,6.1752,6.166,6.1801,6.2048,6.2072,6.1762,6.1759,6.1756,0,6.1092,6.1228,6.1351,6.1384,6.1449,6.1506,6.1536,6.1586,6.1635,6.17,6.1731,6.1808,6.1848,6.1907,6.1909,6.185,6.2049,6.1969,6.2056,6.2056,6.2097,6.2094,6.2352,6.2129,6.2128,6.2128,6.2127,0,6.1296,6.1405,6.1419,6.1494,6.1614,6.1611,6.1729,6.1754,6.1798,6.1876,6.1849,6.1922,6.1922,6.1996,6.1998,6.2112,6.2131,6.2138,6.2137,6.2139,6.2138,6.2164,6.2151,6.2135,6.2133,6.2132,6.2131,0,6.1483,6.1498,6.1628,6.168,6.1695,6.1781,6.1824,6.1894,6.1909,6.2007,6.203,6.2052,6.2137,6.2146,6.2245,6.2246,6.2383,6.2371,6.2365,6.2362,6.2447,6.2438,6.2728,6.2765,6.2521,6.2523,6.2525,0,6.1611,6.1694,6.1754,6.1805,6.1838,6.192,6.197,6.197,6.2023,6.2091,6.2152,6.2235,6.2301,6.2439,6.2463,6.2538,6.2525,6.2622,6.2536,6.2535,6.2523,6.2517,6.2524,6.2637,6.264,6.2642,6.2644,0,6.1836,6.1839,6.1913,6.1989,6.205,6.2109,6.2165,6.2208,6.2215,6.2275,6.2362,6.2414,6.2515,6.2596,6.267,6.2698,6.2672,6.2671,6.2695,6.2696,6.2688,6.2691,6.2407,6.2664,6.2662,6.266,6.2659,6.2659,6.1995,6.2066,6.2119,6.2202,6.2244,6.2297,6.2365,6.2388,6.2461,6.2544,6.254,6.2635,6.2686,6.2782,6.2816,6.2889,6.2857,6.2892,6.29,6.2908,6.2915,6.2679,6.2903,6.2902,6.2902,6.2901,6.2901,0,6.2216,6.2248,6.2325,6.2404,6.2468,6.244,6.25,6.2555,6.264,6.269,6.2755,6.2854,6.2933,6.2963,6.304,6.3092,6.3082,6.3112,6.3107,6.3113,6.2941,6.2912,6.3119,6.3119,6.3119,6.3119,6.3119,6.3119,6.2338,6.2456,6.2465,6.2602,6.2633,6.2727,6.2763,6.2811,6.2851,6.2963,6.3029,6.3048,6.309,6.3169,6.3239,6.3245,6.3273,6.3309,6.331,6.3148,6.3126,6.3105,6.3077,6.3315,6.3316,6.3475,6.3477,6.3478]}]]